Weather in Banda Aceh

Indonesia     5°33′45″N   95°19′17″E
temp.,
°C
wind,
m/s
gust,
m/s
humid.,
%
clouds,
%
prec.,
mm/h
press.,
hPa
HPBL,
m
14 may, fri
fri1401:00+27sse1179100 1.1 1007277
04:00+27sw127970 0.9 1006307
07:00+27se118088 2.3 1007266
10:00+26e2385100 0.7 1009188
13:00+28ne2269100 0.9 1007344
16:00+27ne1174100 0.1 1005187
19:00+27ne017446 0.1 1006219
22:00+27se22757 0.0 1009172
15 may, sat
sat1501:00+27ssw3376100 0.0 1007363
04:00+26s3381100 0.4 1006303
07:00+26sse1178100 0.6 1007282
10:00+29w217194 0.1 1009556
13:00+29w327027 1.7 1008733
16:00+29wsw326813 0.4 1005687
19:00+28w22726 0.6 1006373
22:00+28s11725 0.1 1009374
16 may, sun
sun1601:00+27se117521 0.1 1008293
04:00+27ssw1175100 0.0 1006319
07:00+27ssw1275100 0.0 1008455
10:00+29wsw226991 0.3 1009618
13:00+29wnw3270100 1.1 1008777
16:00+29wnw3269100 1.0 1006858
19:00+28nnw2273100 1.1 1007433
22:00+28e117587 0.0 1009387
17 may, mon
mon1701:00+27s117852 0.0 1008287
04:00+27ssw337953 0.1 1007424
07:00+27ssw347879 0.1 1008405
10:00+29sw4470100 0.0 1010671
13:00+30sw7771100 0.1 1008802
16:00+29ssw8873100 0.5 1006841
19:00+28ssw788095 1.3 1008566
22:00+27ssw788199 0.0 1009473
18 may, tue
tue1801:00+26s788467 0.1 1008433
04:00+26s7886100 1.8 1007461
07:00+26s6783100 4.1 1008428
10:00+29s5671100 0.4 1009525
13:00+30ssw7667100 0.6 1007860
16:00+29ssw887593 2.5 1006659
19:00+27ssw8983100 4.8 1008643
22:00+26s81086100 0.4 1010496